Torna al catalogo

STARLINK-34762

AttivoComunicazioniVLEO
NORAD 65473·PAYLOAD·🇺🇸 United States

Lanciato Sep 3, 2025 da Cape Canaveral Space Force Station

Loading…

Prossimi Passaggi (prossime 24 ore)

TLE

AggiornatoSource: CelesTrak SupGP

Epoca: Sep 15, 2026, 03:28 UTC

1 65473C 25195R   26258.14493056 -.00017550  00000+0 -51858-3 0  2589
2 65473  53.1578  94.4386 0001133  84.4745 249.1821 15.34395915    13

Traccia STARLINK-34762 in tempo reale con AllMySat

Download on the App Store